Date String (YYYY-MM-DD hh:mm:ss) UTC,Instrument flags,Ambient pressure (hPa),Sample flow (lpm),Bypass flow (lpm),Sample temperature (°C),Ambient temperature (°C),ASC tube jacket temperature (°C),LED temperature (°C),Box temperature (°C),Sample RH (%),Span deviation,Mass concentration (μg/m³),Mass concentration (μg/m³),Mass concentration (μg/m³)
DateTimeUTC,F1_M11,P_M11,Q1_M11,Q2_M11,T1_M11,T2_M11,T3_M11,T4_M11,T5_M11,U1_M11,ZSPAN_M11,X0_M11,X2_M11,X1_M11
2022-11-08 06:00:00,,0822.8,5.01,0.00,25.3,23.6,00.0,34.2,27.1,14.9,0003.3,0017.79,0007.46,0006.52
2022-11-08 06:01:00,,0822.8,5.00,0.00,25.3,23.6,00.0,34.2,27.1,14.9,0003.4,0016.84,0007.46,0006.49
2022-11-08 06:02:00,,0822.7,5.00,0.00,25.3,23.6,00.0,34.2,27.1,14.9,0003.7,0016.31,0007.48,0006.46
2022-11-08 06:03:00,,0822.7,5.00,0.00,25.3,23.6,00.0,34.2,27.1,14.9,0003.4,0016.01,0007.37,0006.39
2022-11-08 06:04:00,,0822.8,5.01,0.00,25.3,23.6,00.0,34.2,27.1,14.9,0003.6,0015.32,0007.22,0006.32
2022-11-08 06:05:00,,0822.8,5.00,0.00,25.3,23.6,00.0,34.2,27.1,14.9,0003.9,0016.17,0007.15,0006.24
2022-11-08 06:06:00,,0822.8,4.98,0.00,25.3,23.6,00.0,34.2,27.1,15.0,0004.2,0016.42,0007.12,0006.22
2022-11-08 06:07:00,,0822.8,5.02,0.00,25.3,23.6,00.0,34.2,27.1,14.9,0004.2,0016.69,0007.08,0006.16
2022-11-08 06:08:00,,0822.8,4.99,0.00,25.2,23.5,00.0,34.2,27.1,14.9,0004.1,0015.75,0007.01,0006.09
2022-11-08 06:09:00,,0822.8,4.99,0.00,25.2,23.6,00.0,34.2,27.1,15.0,0003.7,0015.57,0007.01,0006.05
2022-11-08 06:10:00,,0822.8,5.01,0.00,25.2,23.5,00.0,34.1,27.0,15.0,0003.5,0015.66,0007.09,0006.07
2022-11-08 06:11:00,,0822.8,5.00,0.00,25.2,23.5,00.0,34.1,27.0,15.0,0003.4,0015.50,0007.11,0006.06
2022-11-08 06:12:00,,0822.8,4.99,0.00,25.2,23.5,00.0,34.1,27.0,15.0,0003.3,0016.07,0007.06,0006.05
2022-11-08 06:13:00,,0822.8,5.00,0.00,25.2,23.5,00.0,34.1,27.0,15.0,0003.0,0016.19,0006.98,0006.02
2022-11-08 06:14:00,,0822.9,5.01,0.00,25.2,23.5,00.0,34.1,27.0,14.9,0003.2,0016.87,0007.03,0006.03
2022-11-08 06:15:00,,0822.8,4.98,0.00,25.2,23.5,00.0,34.1,27.0,15.0,0003.1,0018.19,0007.02,0006.00
2022-11-08 06:16:00,,0822.8,5.01,0.00,25.2,23.5,00.0,34.1,27.0,15.0,0002.3,0017.25,0006.99,0005.97
2022-11-08 06:17:00,,0822.8,4.99,0.00,25.2,23.4,00.0,34.1,26.9,15.0,0001.8,0017.19,0006.95,0005.94
2022-11-08 06:18:00,,0822.8,5.00,0.00,25.1,23.4,00.0,34.1,26.9,15.0,0002.2,0016.44,0006.91,0005.93
2022-11-08 06:19:00,,0822.8,5.01,0.00,25.1,23.4,00.0,34.1,26.9,15.0,0002.4,0016.98,0006.93,0005.93
2022-11-08 06:20:00,,0822.7,4.98,0.00,25.1,23.5,00.0,34.0,27.0,15.0,0002.5,0016.93,0006.90,0005.93
2022-11-08 06:21:00,,0822.7,5.00,0.00,25.1,23.4,00.0,34.0,27.0,15.0,0003.0,0016.36,0006.87,0005.91
2022-11-08 06:22:00,,0822.8,5.00,0.00,25.1,23.4,00.0,34.0,26.9,14.9,0003.7,0016.58,0006.81,0005.89
2022-11-08 06:23:00,,0822.8,4.99,0.00,25.1,23.4,00.0,34.0,26.9,14.8,0003.8,0015.97,0006.75,0005.84
2022-11-08 06:24:00,,0822.8,4.99,0.00,25.1,23.5,00.0,34.0,26.9,14.9,0003.5,0015.87,0006.75,0005.78
2022-11-08 06:25:00,,0822.8,5.00,0.00,25.1,23.5,00.0,34.0,26.9,14.9,0003.3,0016.05,0006.73,0005.76
2022-11-08 06:26:00,,0822.8,5.01,0.00,25.1,23.5,00.0,34.0,26.9,14.9,0003.7,0015.31,0006.77,0005.76
2022-11-08 06:27:00,,0822.7,4.99,0.00,25.1,23.4,00.0,34.0,26.9,14.9,0003.8,0015.60,0006.80,0005.80
2022-11-08 06:28:00,,0822.7,5.00,0.00,25.1,23.4,00.0,34.0,26.9,15.0,0003.3,0014.93,0006.81,0005.81
2022-11-08 06:29:00,,0822.7,5.00,0.00,25.1,23.4,00.0,34.0,26.9,15.0,0002.7,0014.82,0006.81,0005.81
2022-11-08 06:30:00,,0822.7,4.99,0.00,25.1,23.4,00.0,34.0,26.9,15.0,0002.4,0014.44,0006.74,0005.79
2022-11-08 06:31:00,,0822.8,5.01,0.00,25.0,23.4,00.0,34.0,26.8,15.0,0002.0,0015.09,0006.73,0005.79
2022-11-08 06:32:00,,0822.8,5.01,0.00,25.0,23.4,00.0,33.9,26.9,15.0,0002.3,0015.08,0006.70,0005.77
2022-11-08 06:33:00,,0822.8,4.98,0.00,25.0,23.3,00.0,33.9,26.9,15.1,0002.5,0015.11,0006.70,0005.75
2022-11-08 06:34:00,,0822.8,5.01,0.00,25.0,23.3,00.0,33.9,26.8,15.2,0001.9,0015.47,0006.76,0005.75
2022-11-08 06:35:00,,0822.7,4.99,0.00,25.0,23.3,00.0,33.9,26.8,15.2,0001.9,0015.30,0006.73,0005.78
2022-11-08 06:36:00,,0822.7,4.98,0.00,25.0,23.3,00.0,33.9,26.8,15.1,0002.8,0015.55,0006.77,0005.79
2022-11-08 06:37:00,,0822.7,5.01,0.00,25.0,23.3,00.0,33.9,26.8,15.2,0002.9,0015.16,0006.78,0005.79
2022-11-08 06:38:00,,0822.8,4.99,0.00,25.0,23.3,00.0,33.9,26.8,15.1,0002.7,0014.99,0006.66,0005.72
2022-11-08 06:39:00,,0822.7,4.99,0.00,25.0,23.3,00.0,33.9,26.8,15.0,0002.9,0015.86,0006.59,0005.63
2022-11-08 06:40:00,,0822.7,5.01,0.00,25.0,23.3,00.0,33.9,26.8,15.0,0003.1,0015.77,0006.47,0005.53
2022-11-08 06:41:00,,0822.7,4.99,0.00,24.9,23.3,00.0,33.9,26.7,15.0,0003.5,0015.79,0006.41,0005.45
2022-11-08 06:42:00,,0822.7,5.01,0.00,24.9,23.3,00.0,33.9,26.7,14.9,0003.9,0015.51,0006.34,0005.35
2022-11-08 06:43:00,,0822.7,5.00,0.00,24.9,23.3,00.0,33.8,26.7,14.9,0003.7,0015.24,0006.23,0005.25
2022-11-08 06:44:00,,0822.7,4.99,0.00,24.9,23.2,00.0,33.8,26.7,14.9,0003.4,0014.62,0006.10,0005.16
2022-11-08 06:45:00,,0822.7,5.00,0.00,24.9,23.2,00.0,33.8,26.7,14.9,0003.8,0014.34,0005.98,0005.09
2022-11-08 06:46:00,,0822.7,5.00,0.00,24.9,23.2,00.0,33.8,26.7,14.8,0003.9,0014.04,0005.89,0005.02
2022-11-08 06:47:00,,0822.7,5.00,0.00,24.9,23.2,00.0,33.8,26.7,14.8,0002.8,0013.32,0005.79,0004.97
2022-11-08 06:48:00,,0822.7,4.98,0.00,24.9,23.2,00.0,33.8,26.7,14.9,0002.1,0013.01,0005.76,0004.96
2022-11-08 06:49:00,,0822.8,5.01,0.00,24.9,23.2,00.0,33.8,26.7,14.9,0002.3,0013.20,0005.81,0005.00
2022-11-08 06:50:00,,0822.8,5.00,0.00,24.9,23.2,00.0,33.8,26.7,14.9,0002.8,0012.58,0005.85,0005.04
2022-11-08 06:51:00,,0822.7,4.98,0.00,24.9,23.2,00.0,33.8,26.7,14.8,0001.9,0012.48,0005.89,0005.10
2022-11-08 06:52:00,,0822.8,5.01,0.00,24.9,23.2,00.0,33.8,26.7,14.8,0001.8,0012.25,0005.91,0005.13
2022-11-08 06:53:00,,0822.8,5.00,0.00,24.9,23.2,00.0,33.7,26.7,14.6,0000.9,0011.45,0005.83,0005.10
2022-11-08 06:54:00,,0822.8,4.98,0.00,24.8,23.2,00.0,33.7,26.7,14.3,0000.7,0011.13,0005.74,0005.04
2022-11-08 06:55:00,,0822.7,5.00,0.00,24.8,23.2,00.0,33.7,26.6,14.2,0001.3,0011.04,0005.67,0004.99
2022-11-08 06:56:00,,0822.7,5.01,0.00,24.8,23.2,00.0,33.7,26.7,14.4,0001.5,0011.08,0005.69,0005.02
2022-11-08 06:57:00,,0822.7,5.00,0.00,24.8,23.2,00.0,33.7,26.6,14.7,0001.6,0011.32,0005.76,0005.09
2022-11-08 06:58:00,,0822.8,4.99,0.00,24.8,23.2,00.0,33.7,26.6,14.8,0002.4,0012.36,0005.86,0005.15
2022-11-08 06:59:00,,0822.8,5.01,0.00,24.8,23.2,00.0,33.7,26.6,14.9,0002.6,0013.58,0005.91,0005.19
